Regional Weather Roundup
Issued by NWS

Home | Current Version | Previous Version | Text Only | Print | Product List | Glossary Off
Versions: 1 2 3 4 5 6 7 8 9 10 11 12 13 14 15 16 17 18 19 20 21 22 23 24 25 26 27 28 29 30 31 32 33 34 35 36 37 38 39 40 41 42 43 44 45 46 47 48 49 50

000
ASUS43 KLMK 090302
RWRKY
KENTUCKY REGIONAL WEATHER ROUNDUP
NATIONAL WEATHER SERVICE LOUISVILLE KY
1000 PM EST THU DEC 08 2016

NOTE "FAIR" INDICATES FEW OR NO CLOUDS BELOW 12,000 FEET
WITH NO SIGNIFICANT WEATHER AND/OR OBSTRUCTIONS TO VISIBILITY.

KYZ001>023-026-027-061>063-070>075-090400-
WESTERN AND SOUTH CENTRAL KENTUCKY

CITY           SKY/WX    TMP DP  RH WIND       PRES   REMARKS
PADUCAH        CLEAR     26  13  57 NW5       30.55R WCI  20
HENDERSON      CLOUDY    27  12  54 W15       30.53S WCI  15
OWENSBORO      CLOUDY    28  16  60 NW13      30.53R WCI  17
HOPKINSVILLE   CLEAR     26  16  65 VRB3      30.52R
BOWLING GREEN  PTCLDY    27  16  63 NW5       30.51R WCI  22
GLASGOW        NOT AVBL
$$

KYZ024-025-028>034-038-045-046-053-090400-
NORTH CENTRAL KENTUCKY

CITY           SKY/WX    TMP DP  RH WIND       PRES   REMARKS
LOUISVILLE/SDF CLOUDY    26  11  52 NW13      30.48S WCI  15
LOUISVILLE/LOU CLOUDY    26  13  57 NW14      30.49R WCI  14
FORT KNOX      CLOUDY    25  13  60 NW12      30.45R WCI  15
$$

KYZ035>037-039>044-047>052-055>060-089>105-090400-
NORTHEAST KENTUCKY

CITY           SKY/WX    TMP DP  RH WIND       PRES   REMARKS
LEXINGTON      MOCLDY    23  13  65 W9        30.42R WCI  13
COVINGTON      FLURRIES  23  13  65 W16       30.41S WCI  10
FRANKFORT      CLOUDY    25  12  58 W8G16     30.43R WCI  16
$$

KYZ054-064>069-076>088-106>120-090400-
SOUTHEAST KENTUCKY

CITY           SKY/WX    TMP DP  RH WIND       PRES   REMARKS
JACKSON        CLEAR     26  14  60 VRB5      30.36R WCI  20
LONDON         CLEAR     26  14  60 W8        30.39S WCI  18
SOMERSET       CLEAR     27  16  63 W3        30.44S
MIDDLESBORO    CLEAR     29  15  55 NW12G20   30.40R WCI  20
MONTICELLO     PTCLDY    26  18  71 NW12      30.45S WCI  16
$$





USA.gov is the U.S. government's official web portal to all federal, state and local government web resources and services.